Regional Weather Roundup
Issued by NWS Charleston, SC

Current Version | Previous Version | Graphics & Text | Print | Product List | Glossary Off
Versions: 1 2 3 4 5 6 7 8 9 10 11 12 13 14 15 16 17 18 19 20 21 22 23 24 25 26 27 28 29 30 31 32 33 34 35 36 37 38 39 40 41 42 43 44 45 46 47 48 49 50
000 ASUS42 KCHS 240227 RWRCHS Regional Weather Roundup National Weather Service Charleston SC 900 PM EST TUE JAN 23 2018 NOTE: "fair" indicates few or no clouds below 12,000 feet with no significant weather and/or obstructions to visibility. Not all stations are quality controlled. Use data with caution, especially dewpoint observations. SCZ027-030-031-034>040-042>050-240300- ...Southeast South Carolina... CITY SKY/WX TMP DP RH WIND PRES REMARKS N Charleston FAIR 59 31 34 W8 30.00R Waterfront Prk N/A 61 32 33 W6 29.85R Mount Pleasant FAIR 59 32 36 W7 30.01R Johns Island FAIR 59 32 36 W7 30.02R Pinopolis N/A 57 39 51 W9 29.91R Moncks Corner FAIR 54 28 37 CALM 30.01R Summerville FAIR 55 32 41 W6 30.03R Beaufort MCAS FAIR 57 32 38 W8 30.03R Beaufort Arpt FAIR 57 32 38 W10 30.04R Hilton Head Is FAIR 61 30 31 VRB9G15 30.04R Walterboro FAIR 54 32 43 W7 30.04R Allendale FAIR 50 32 50 CALM 30.04R ...Southern Midlands and Pee Dee... CITY SKY/WX TMP DP RH WIND PRES REMARKS Georgetown FAIR 55 32 41 W8 30.00R Kingstree FAIR 55 30 38 W10G16 30.00R Orangeburg FAIR 54 31 41 W12G21 30.02R Barnwell N/A 54 34 47 VRB6 30.05R Aiken FAIR 46 32 57 W8 30.07R Manning FAIR N/A N/A N/A MISG 30.01R Columbia FAIR 54 33 45 W15 30.01R Sumter FAIR 54 30 39 W10G20 29.97R Florence FAIR 56 32 40 W14 29.98R Myrtle Beach N/A 59 33 37 W13 29.97R N Myrtle Beach FAIR 60 32 34 W8 29.94R $$ GAZ063-065-086>088-099>101-113>116-118-119-134>141-150-240300- ...Southeast Georgia... CITY SKY/WX TMP DP RH WIND PRES REMARKS Savannah Arpt FAIR 55 32 41 W9 30.06R Hunter AAF FAIR 51 30 45 W12 30.03R Fort Stewart FAIR 50 34 53 W5 30.05R Statesboro FAIR 45 35 68 W3 30.07R Sylvania FAIR 50 36 57 NW7 30.07R Claxton FAIR 46 38 75 SW3 30.08R ...CSRA, Central and far Southeast Georgia... CITY SKY/WX TMP DP RH WIND PRES REMARKS Thomson FAIR 47 32 54 N7 30.12R Augusta-Bush FAIR 53 32 44 W9 30.05R Augusta-Daniel FAIR 55 31 39 W8 30.05R Swainsboro FAIR 45 36 70 NW6 30.09R Vidalia FAIR 54 34 47 W6 30.09R Eastman FAIR 51 21 31 NW5 30.13R Hazlehurst FAIR 52 25 34 CALM 30.09R Alma FAIR 47 35 63 CALM 30.09R Waycross FAIR 55 26 33 NW6 30.09R Jesup FAIR 55 30 38 CALM 30.08R Baxley FAIR 52 32 46 NW6 30.09R Brunswick FAIR 59 28 31 W7 30.07R Saint Simons FAIR 60 32 34 W8 30.06R $$ SCZ027-028-034-036>038-045-046-048>050-GAZ119-141-240300- ...Lake and Supplemental Coastal Observations... STATION/POSITION TIME TEMP WIND PRES WAVE SWELL AIR SEA DIR/SP/G HT/PER HT/PER/DIR (UTC) (F) (DEG/KT/KT) (MB) (FT/S) (FT/S/D) Winyah Bay 0145 60 280/ 6 1015.0R Lake Murray 0150 54 270/ 18/ 24 1015.2R ACE Basin NERRS 0145 57 260/ 2 1016.0S Fort Pulaski 0200 56 49 280/ 8/ 9 1017.5 Sapelo Island 0200 57 290/ 8 1018.0 $$ ANZ835-935-AMZ111-154-330-350-352-354-370-450-454-472-240300- ...C-MAN and Buoy Observations... STATION/POSITION TIME TEMP WIND PRES WAVE SWELL AIR SEA DIR/SP/G HT/PER HT/PER/DIR (UTC) (F) (DEG/KT/KT) (MB) (FT/S) (FT/S/D) Buoy 41004 0210 66 69 290/ 21/ 27 1015.2 Buoy 41008 0150 54 50 270/ 8/ 8 1017.0R 3/ 6 2/110/ 6 Folly Beach CMAN 0200 58 270/ 5/ 8 1016.5R Capers Nearshore 0208 54 53 280/ 10/ 12 1015.6R Fripp Nearshore 0208 51 48 280/ 8/ 12 1016.1R STATION/POSITION TIME TEMP WIND PRES WAVE SWELL AIR SEA DIR/SP/G HT/PER HT/PER/DIR (UTC) (F) (DEG/KT/KT) (MB) (FT/S) (FT/S/D) 5E St. Marys GA 0200 51 N/A 2/ 6 Frying Pan Buoy 0210 63 63 260/ 17/ 23 1013.7 Buoy 41025 0210 66 70 240/ 25/ 31 1010.8 Cape Lookout NC 0200 240/ 16/ 20 1011.9R Buoy 41002 0150 71 70 210/ 17/ 19 1015.5S 7/ 7 Buoy 41010 NOT AVBL St Augustine FL 0200 65 54 230/ 4/ 5 1018.1R $$

USA.gov is the U.S. government's official web portal to all federal, state and local government web resources and services.